Location: Lawrence
(38.9720°N, 95.2350°W)
Time: 17:37:35
(UTC-05:00)

ISS - Visible Passes

Search period start: 24 July 2017 00:00
Search period end: 03 August 2017 00:00
Orbit: 400 x 408 km, 51.6° (Epoch: 25 July)

Date Brightness Start Highest point End Pass type
(mag) Time Alt. Az. Time Alt. Az. Time Alt. Az.
24 Jul -0.4 00:09:17 10° NW 00:10:48 13° NNW 00:12:21 10° NNE visible
24 Jul -1.1 03:23:27 10° NNW 03:25:58 20° NNE 03:28:29 10° ENE visible
24 Jul -3.8 04:59:27 10° WNW 05:02:40 57° SW 05:05:52 10° SE visible
24 Jul -3.9 21:38:09 10° SW 21:41:23 84° SE 21:44:38 10° NE visible
24 Jul -0.7 23:16:00 10° WNW 23:18:13 17° NNW 23:20:25 10° NNE visible
25 Jul -0.6 02:31:29 10° NNW 02:33:24 15° NNE 02:35:19 10° NE visible
25 Jul -3.6 04:07:44 15° NW 04:10:22 70° NE 04:13:36 10° ESE visible
25 Jul -1.8 05:45:26 10° WSW 05:46:25 11° SW 05:47:23 10° SW visible
25 Jul -1.3 22:22:57 10° W 22:25:40 24° NNW 22:28:24 10° NNE visible
26 Jul -2.3 21:30:07 10° WSW 21:33:11 39° NNW 21:36:18 10° NE visible
26 Jul -0.4 23:09:08 10° NW 23:10:22 12° NNW 23:11:37 10° N visible
27 Jul -0.7 22:15:44 10° WNW 22:17:43 15° NNW 22:19:43 10° NNE visible
28 Jul -1.1 21:22:33 10° WNW 21:25:07 21° NNW 21:27:42 10° NNE visible
29 Jul -0.2 00:38:50 10° N 00:39:05 11° N 00:39:05 11° N visible
29 Jul -0.5 22:08:55 10° NNW 22:09:50 11° NNW 22:10:44 10° N visible
29 Jul -0.5 23:47:20 10° N 23:47:32 10° N 23:47:43 10° NNE visible
30 Jul -0.8 21:15:22 10° NW 21:17:07 14° NNW 21:18:53 10° NNE visible
31 Jul -0.2 00:29:56 10° NNW 00:30:05 11° NNW 00:30:05 11° NNW visible
31 Jul -0.8 23:37:56 10° NNW 23:39:19 13° N 23:39:19 13° N visible
01 Aug -0.6 21:08:42 10° NNW 21:09:10 10° N 21:09:38 10° N visible
01 Aug -0.8 22:46:05 10° N 22:46:52 11° N 22:47:39 10° NNE visible
02 Aug -0.2 00:21:11 10° NW 00:21:11 10° NW 00:21:11 10° NW visible
02 Aug -1.0 23:29:01 10° NNW 23:30:27 17° N 23:30:27 17° N visible
